| time (UTC) | temp F | wind direction | speed MPH | gust MPH | rain 1hr in | rain 24hr in | rain mn in | humidity % | barometer mb |
| 20260905174528 | 54 | 291 | 0.0 | 0.0 | 0.00 | 0.01 | 0.01 | 89 | 1021.0 |
| 20260905174249 | 53 | 291 | 0.0 | 1.0 | 0.00 | 0.01 | 0.01 | 91 | 1021.0 |
| 20260905173522 | 53 | 291 | 0.0 | 1.0 | 0.00 | 0.01 | 0.01 | 92 | 1021.0 |
| 20260905173013 | 53 | 291 | 0.0 | 0.0 | 0.00 | 0.01 | 0.01 | 94 | 1021.0 |
| 20260905172513 | 53 | 291 | 0.0 | 3.0 | 0.00 | 0.01 | 0.01 | 96 | 1021.0 |
| 20260905172013 | 52 | 291 | 0.0 | 3.0 | 0.00 | 0.01 | 0.01 | 96 | 1021.0 |
| 20260905171731 | 52 | 293 | 0.0 | 1.0 | 0.00 | 0.01 | 0.01 | 97 | 1021.0 |
| 20260905171015 | 51 | 292 | 0.0 | 1.0 | 0.00 | 0.01 | 0.01 | 98 | 1021.0 |
| 20260905170511 | 51 | 293 | 0.0 | 0.0 | 0.00 | 0.01 | 0.01 | 98 | 1021.0 |
| 20260905170010 | 50 | 293 | 0.0 | 0.0 | 0.00 | 0.01 | 0.01 | 98 | 1021.0 |
| 20260905165509 | 50 | 293 | 0.0 | 0.0 | 0.00 | 0.01 | 0.01 | 97 | 1021.0 |
| 20260905165010 | 50 | 293 | 0.0 | 0.0 | 0.00 | 0.01 | 0.01 | 97 | 1021.0 |
| 20260905164732 | 50 | 293 | 0.0 | 0.0 | 0.00 | 0.01 | 0.01 | 97 | 1021.1 |
| 20260905164005 | 50 | 293 | 0.0 | 0.0 | 0.01 | 0.01 | 0.01 | 97 | 1021.1 |
| 20260905163733 | 50 | 293 | 0.0 | 0.0 | 0.01 | 0.01 | 0.01 | 97 | 1021.0 |
| 20260905163006 | 49 | 293 | 0.0 | 0.0 | 0.01 | 0.01 | 0.01 | 97 | 1021.0 |
| 20260905162506 | 49 | 293 | 0.0 | 1.0 | 0.01 | 0.01 | 0.01 | 97 | 1020.8 |
| 20260905162007 | 49 | 293 | 0.0 | 2.0 | 0.01 | 0.01 | 0.01 | 97 | 1021.0 |
| 20260905161501 | 50 | 293 | 0.0 | 2.0 | 0.01 | 0.01 | 0.01 | 97 | 1020.8 |
| 20260905161001 | 50 | 293 | 0.0 | 1.0 | 0.01 | 0.01 | 0.01 | 98 | 1020.8 |
| 20260905160457 | 50 | 293 | 0.0 | 0.0 | 0.01 | 0.01 | 0.01 | 98 | 1020.8 |
| 20260905155954 | 49 | 293 | 0.0 | 0.0 | 0.01 | 0.01 | 0.01 | 98 | 1020.6 |
| 20260905155452 | 49 | 293 | 0.0 | 0.0 | 0.01 | 0.01 | 0.01 | 98 | 1020.6 |
| 20260905154951 | 49 | 293 | 0.0 | 0.0 | 0.01 | 0.01 | 0.01 | 98 | 1020.6 |
| 20260905154455 | 49 | 293 | 0.0 | 0.0 | 0.01 | 0.01 | 0.01 | 98 | 1020.6 |
| 20260905153947 | 49 | 293 | 0.0 | 0.0 | 0.00 | 0.00 | 0.00 | 98 | 1020.6 |
| 20260905153442 | 49 | 293 | 0.0 | 0.0 | 0.00 | 0.00 | 0.00 | 98 | 1020.6 |
| 20260905153203 | 49 | 293 | 0.0 | 0.0 | 0.00 | 0.00 | 0.00 | 98 | 1020.6 |
| 20260905152443 | 49 | 293 | 0.0 | 0.0 | 0.00 | 0.00 | 0.00 | 98 | 1020.7 |
| 20260905151946 | 49 | 293 | 0.0 | 0.0 | 0.00 | 0.00 | 0.00 | 97 | 1020.6 |
| 20260905151443 | 49 | 293 | 0.0 | 0.0 | 0.00 | 0.00 | 0.00 | 98 | 1020.7 |
| 20260905150938 | 49 | 293 | 0.0 | 0.0 | 0.00 | 0.01 | 0.00 | 98 | 1020.6 |
| 20260905150655 | 48 | 293 | 0.0 | 0.0 | 0.00 | 0.01 | 0.00 | 97 | 1020.6 |
| 20260905145933 | 48 | 293 | 0.0 | 0.0 | 0.00 | 0.01 | 0.00 | 97 | 1020.5 |
| 20260905145432 | 48 | 293 | 0.0 | 0.0 | 0.00 | 0.01 | 0.00 | 97 | 1020.5 |
| 20260905144929 | 48 | 293 | 0.0 | 0.0 | 0.00 | 0.02 | 0.00 | 97 | 1020.5 |
| 20260905144414 | 48 | 293 | 0.0 | 0.0 | 0.00 | 0.02 | 0.00 | 97 | 1020.5 |
| 20260905143914 | 48 | 293 | 0.0 | 0.0 | 0.00 | 0.02 | 0.00 | 97 | 1020.4 |
| 20260905143408 | 48 | 293 | 0.0 | 0.0 | 0.00 | 0.02 | 0.00 | 97 | 1020.4 |
| 20260905142909 | 48 | 293 | 0.0 | 0.0 | 0.00 | 0.02 | 0.00 | 97 | 1020.4 |
| 20260905142412 | 48 | 293 | 0.0 | 0.0 | 0.00 | 0.02 | 0.00 | 97 | 1020.4 |
| 20260905141907 | 48 | 293 | 0.0 | 0.0 | 0.00 | 0.02 | 0.00 | 97 | 1020.4 |
| 20260905141405 | 48 | 293 | 0.0 | 0.0 | 0.00 | 0.02 | 0.00 | 97 | 1020.3 |
| 20260905140905 | 48 | 293 | 0.0 | 0.0 | 0.00 | 0.02 | 0.00 | 97 | 1020.2 |
| 20260905140359 | 48 | 293 | 0.0 | 0.0 | 0.00 | 0.02 | 0.00 | 97 | 1019.9 |
| 20260905140128 | 48 | 293 | 0.0 | 0.0 | 0.00 | 0.03 | 0.00 | 97 | 1020.1 |
| 20260905135350 | 48 | 293 | 0.0 | 0.0 | 0.00 | 0.03 | 0.00 | 97 | 1020.1 |
| 20260905134850 | 48 | 293 | 0.0 | 0.0 | 0.00 | 0.03 | 0.00 | 97 | 1019.9 |
| 20260905134346 | 48 | 293 | 0.0 | 0.0 | 0.00 | 0.03 | 0.00 | 97 | 1019.9 |
| 20260905133848 | 48 | 293 | 0.0 | 0.0 | 0.00 | 0.03 | 0.00 | 97 | 1019.9 |
| 20260905133607 | 48 | 293 | 0.0 | 0.0 | 0.00 | 0.03 | 0.00 | 97 | 1020.1 |
| 20260905132846 | 48 | 293 | 0.0 | 0.0 | 0.00 | 0.03 | 0.00 | 97 | 1019.9 |
| 20260905132606 | 48 | 293 | 0.0 | 0.0 | 0.00 | 0.03 | 0.00 | 97 | 1019.9 |
| 20260905131841 | 48 | 293 | 0.0 | 0.0 | 0.00 | 0.03 | 0.00 | 97 | 1019.6 |
| 20260905131336 | 48 | 293 | 0.0 | 0.0 | 0.00 | 0.03 | 0.00 | 97 | 1019.5 |
| 20260905130832 | 48 | 293 | 0.0 | 0.0 | 0.00 | 0.03 | 0.00 | 97 | 1019.4 |
| 20260905130334 | 48 | 293 | 0.0 | 0.0 | 0.00 | 0.03 | 0.00 | 97 | 1019.2 |
| 20260905130058 | 48 | 293 | 0.0 | 0.0 | 0.00 | 0.03 | 0.00 | 97 | 1019.2 |
| 20260905125557 | 48 | 293 | 0.0 | 0.0 | 0.00 | 0.03 | 0.00 | 97 | 1019.2 |
| 20260905124832 | 48 | 293 | 0.0 | 0.0 | 0.00 | 0.03 | 0.00 | 97 | 1019.1 |
| 20260905124328 | 48 | 293 | 0.0 | 0.0 | 0.00 | 0.03 | 0.00 | 97 | 1019.1 |
| 20260905124054 | 48 | 293 | 0.0 | 0.0 | 0.00 | 0.03 | 0.00 | 97 | 1019.2 |
| 20260905123328 | 48 | 293 | 0.0 | 0.0 | 0.00 | 0.03 | 0.00 | 97 | 1019.2 |
| 20260905122829 | 48 | 293 | 0.0 | 0.0 | 0.00 | 0.03 | 0.00 | 97 | 1019.2 |
| 20260905122555 | 48 | 293 | 0.0 | 0.0 | 0.00 | 0.03 | 0.00 | 97 | 1019.3 |
| 20260905121818 | 48 | 293 | 0.0 | 0.0 | 0.00 | 0.03 | 0.00 | 97 | 1019.3 |
| 20260905121314 | 48 | 293 | 0.0 | 0.0 | 0.00 | 0.03 | 0.00 | 97 | 1019.3 |
| 20260905120809 | 48 | 293 | 0.0 | 0.0 | 0.00 | 0.03 | 0.00 | 97 | 1019.2 |
| 20260905120311 | 48 | 293 | 0.0 | 0.0 | 0.00 | 0.03 | 0.00 | 97 | 1019.1 |
| 20260905120032 | 48 | 293 | 0.0 | 0.0 | 0.00 | 0.03 | 0.00 | 97 | 1019.2 |
| 20260905115306 | 48 | 293 | 0.0 | 1.0 | 0.00 | 0.03 | 0.00 | 97 | 1019.4 |
| 20260905114805 | 48 | 293 | 0.0 | 1.0 | 0.00 | 0.03 | 0.00 | 97 | 1019.4 |
| 20260905114522 | 48 | 292 | 0.0 | 0.0 | 0.00 | 0.03 | 0.00 | 97 | 1019.2 |
| 20260905114020 | 48 | 292 | 0.0 | 0.0 | 0.00 | 0.03 | 0.00 | 97 | 1019.3 |
| 20260905113245 | 48 | 292 | 0.0 | 0.0 | 0.00 | 0.03 | 0.00 | 97 | 1019.3 |
| 20260905113005 | 48 | 292 | 0.0 | 4.0 | 0.00 | 0.03 | 0.00 | 97 | 1019.2 |
| 20260905112245 | 48 | 292 | 0.0 | 4.0 | 0.00 | 0.03 | 0.00 | 97 | 1019.2 |
| 20260905111745 | 47 | 289 | 0.0 | 0.0 | 0.00 | 0.03 | 0.00 | 97 | 1019.2 |
| 20260905111225 | 47 | 289 | 0.0 | 0.0 | 0.00 | 0.03 | 0.00 | 97 | 1019.1 |
| 20260905110950 | 47 | 289 | 0.0 | 0.0 | 0.00 | 0.03 | 0.00 | 97 | 1019.1 |
| 20260905110220 | 47 | 289 | 0.0 | 0.0 | 0.00 | 0.03 | 0.00 | 97 | 1018.8 |
| 20260905105721 | 47 | 289 | 0.0 | 0.0 | 0.00 | 0.03 | 0.00 | 97 | 1018.7 |
| 20260905105205 | 47 | 289 | 0.0 | 0.0 | 0.00 | 0.03 | 0.00 | 97 | 1018.6 |
| 20260905104656 | 47 | 289 | 0.0 | 0.0 | 0.00 | 0.03 | 0.00 | 97 | 1018.7 |
| 20260905104150 | 47 | 289 | 0.0 | 0.0 | 0.00 | 0.03 | 0.00 | 97 | 1018.4 |
| 20260905103631 | 47 | 289 | 0.0 | 0.0 | 0.00 | 0.03 | 0.00 | 97 | 1018.3 |
| 20260905103126 | 47 | 289 | 0.0 | 0.0 | 0.00 | 0.03 | 0.00 | 97 | 1018.4 |
| 20260905102854 | 47 | 289 | 0.0 | 0.0 | 0.00 | 0.03 | 0.00 | 97 | 1018.5 |
| 20260905102129 | 47 | 289 | 0.0 | 0.0 | 0.00 | 0.03 | 0.00 | 97 | 1018.4 |
| 20260905101603 | 47 | 289 | 0.0 | 0.0 | 0.00 | 0.03 | 0.00 | 97 | 1018.5 |
| 20260905101058 | 47 | 289 | 0.0 | 0.0 | 0.00 | 0.03 | 0.00 | 97 | 1018.2 |
| 20260905100551 | 47 | 289 | 0.0 | 0.0 | 0.00 | 0.03 | 0.00 | 97 | 1018.5 |
| 20260905100046 | 47 | 289 | 0.0 | 0.0 | 0.00 | 0.03 | 0.00 | 97 | 1018.4 |
| 20260905100022 | 47 | 289 | 0.0 | 0.0 | 0.00 | 0.03 | 0.00 | 97 | 1018.5 |
| 20260905095036 | 47 | 289 | 0.0 | 0.0 | 0.00 | 0.03 | 0.00 | 97 | 1018.6 |
| 20260905094531 | 47 | 289 | 0.0 | 0.0 | 0.00 | 0.03 | 0.00 | 97 | 1018.7 |
| 20260905094032 | 47 | 289 | 0.0 | 0.0 | 0.00 | 0.03 | 0.00 | 97 | 1018.5 |
| 20260905093527 | 47 | 289 | 0.0 | 0.0 | 0.00 | 0.03 | 0.00 | 97 | 1018.6 |
| 20260905093021 | 47 | 289 | 0.0 | 0.0 | 0.00 | 0.03 | 0.00 | 97 | 1018.5 |
| 20260905092522 | 47 | 289 | 0.0 | 0.0 | 0.00 | 0.03 | 0.00 | 97 | 1018.6 |
| 20260905092022 | 47 | 289 | 0.0 | 0.0 | 0.00 | 0.03 | 0.00 | 97 | 1018.7 |
| 20260905091523 | 47 | 289 | 0.0 | 0.0 | 0.00 | 0.03 | 0.00 | 97 | 1018.5 |
| 20260905091022 | 47 | 289 | 0.0 | 0.0 | 0.00 | 0.03 | 0.00 | 97 | 1018.3 |
| 20260905090518 | 47 | 289 | 0.0 | 0.0 | 0.00 | 0.03 | 0.00 | 97 | 1018.3 |
| 20260905090013 | 47 | 289 | 0.0 | 0.0 | 0.00 | 0.03 | 0.00 | 97 | 1018.5 |
| 20260905085511 | 47 | 289 | 0.0 | 0.0 | 0.00 | 0.03 | 0.00 | 97 | 1018.6 |
| 20260905084948 | 47 | 289 | 0.0 | 0.0 | 0.00 | 0.03 | 0.00 | 97 | 1018.7 |
| 20260905084712 | 47 | 289 | 0.0 | 0.0 | 0.00 | 0.03 | 0.00 | 97 | 1018.8 |
| 20260905083947 | 47 | 289 | 0.0 | 0.0 | 0.00 | 0.03 | 0.00 | 96 | 1018.7 |
| 20260905083716 | 47 | 289 | 0.0 | 0.0 | 0.00 | 0.03 | 0.00 | 96 | 1018.8 |
| 20260905082949 | 47 | 289 | 0.0 | 0.0 | 0.00 | 0.03 | 0.00 | 96 | 1018.7 |
| 20260905082444 | 47 | 289 | 0.0 | 0.0 | 0.00 | 0.03 | 0.00 | 96 | 1018.7 |
| 20260905081938 | 47 | 289 | 0.0 | 0.0 | 0.00 | 0.03 | 0.00 | 96 | 1018.6 |
| 20260905081928 | 47 | 289 | 0.0 | 0.0 | 0.00 | 0.03 | 0.00 | 96 | 1018.5 |
| 20260905080923 | 47 | 289 | 0.0 | 0.0 | 0.00 | 0.03 | 0.00 | 96 | 1018.6 |
| 20260905080419 | 47 | 289 | 0.0 | 0.0 | 0.00 | 0.03 | 0.00 | 96 | 1018.7 |
| 20260905075922 | 47 | 289 | 0.0 | 0.0 | 0.00 | 0.03 | 0.00 | 96 | 1018.8 |
| 20260905075419 | 47 | 289 | 0.0 | 0.0 | 0.00 | 0.03 | 0.00 | 96 | 1018.9 |
| 20260905074904 | 47 | 289 | 0.0 | 0.0 | 0.00 | 0.03 | 0.00 | 96 | 1018.9 |
| 20260905074404 | 47 | 289 | 0.0 | 0.0 | 0.00 | 0.03 | 0.00 | 96 | 1018.9 |
| 20260905073900 | 47 | 289 | 0.0 | 0.0 | 0.00 | 0.03 | 0.00 | 96 | 1018.8 |
| 20260905073357 | 47 | 289 | 0.0 | 0.0 | 0.00 | 0.03 | 0.00 | 96 | 1018.9 |
| 20260905072852 | 47 | 289 | 0.0 | 0.0 | 0.00 | 0.03 | 0.00 | 96 | 1019.2 |
| 20260905072350 | 47 | 289 | 0.0 | 0.0 | 0.00 | 0.03 | 0.00 | 95 | 1019.2 |
| 20260905072346 | 47 | 289 | 0.0 | 0.0 | 0.00 | 0.03 | 0.00 | 95 | 1019.3 |
| 20260905071348 | 47 | 289 | 0.0 | 0.0 | 0.00 | 0.03 | 0.00 | 95 | 1019.1 |
| 20260905070844 | 47 | 289 | 0.0 | 0.0 | 0.00 | 0.03 | 0.00 | 95 | 1018.8 |
| 20260905070333 | 47 | 289 | 0.0 | 0.0 | 0.00 | 0.03 | 0.00 | 95 | 1018.8 |
| 20260905065828 | 47 | 289 | 0.0 | 0.0 | 0.00 | 0.03 | 0.00 | 95 | 1018.7 |
| 20260905065315 | 47 | 289 | 0.0 | 0.0 | 0.00 | 0.03 | 0.00 | 95 | 1018.6 |
| 20260905064818 | 47 | 289 | 0.0 | 0.0 | 0.00 | 0.03 | 0.00 | 95 | 1018.3 |
| 20260905064310 | 47 | 289 | 0.0 | 0.0 | 0.00 | 0.03 | 0.00 | 95 | 1018.3 |
| 20260905063811 | 47 | 289 | 0.0 | 0.0 | 0.00 | 0.03 | 0.00 | 94 | 1018.3 |
| 20260905063311 | 47 | 289 | 0.0 | 0.0 | 0.00 | 0.03 | 0.00 | 95 | 1018.5 |
| 20260905063258 | 48 | 289 | 0.0 | 0.0 | 0.00 | 0.03 | 0.00 | 94 | 1018.5 |
| 20260905062312 | 48 | 289 | 0.0 | 0.0 | 0.00 | 0.03 | 0.00 | 95 | 1018.4 |
| 20260905061806 | 48 | 289 | 0.0 | 0.0 | 0.00 | 0.03 | 0.00 | 95 | 1018.3 |
| 20260905061301 | 48 | 289 | 0.0 | 0.0 | 0.00 | 0.03 | 0.00 | 95 | 1018.4 |
| 20260905060757 | 48 | 289 | 0.0 | 0.0 | 0.00 | 0.03 | 0.00 | 95 | 1018.5 |
| 20260905060256 | 48 | 289 | 0.0 | 0.0 | 0.00 | 0.03 | 0.00 | 95 | 1018.4 |
| 20260905055755 | 49 | 289 | 0.0 | 0.0 | 0.00 | 0.03 | 0.03 | 95 | 1018.5 |
| 20260905055247 | 49 | 289 | 0.0 | 0.0 | 0.00 | 0.03 | 0.03 | 95 | 1018.6 |
| 20260905054747 | 49 | 289 | 0.0 | 0.0 | 0.00 | 0.03 | 0.03 | 95 | 1018.6 |
| 20260905054243 | 49 | 289 | 0.0 | 0.0 | 0.00 | 0.03 | 0.03 | 95 | 1018.5 |
| 20260905053738 | 49 | 289 | 0.0 | 0.0 | 0.00 | 0.03 | 0.03 | 95 | 1018.5 |
| 20260905053238 | 49 | 289 | 0.0 | 0.0 | 0.00 | 0.03 | 0.03 | 95 | 1018.4 |
| 20260905052733 | 49 | 289 | 0.0 | 0.0 | 0.00 | 0.03 | 0.03 | 95 | 1018.5 |
| 20260905052454 | 49 | 289 | 0.0 | 0.0 | 0.00 | 0.03 | 0.03 | 95 | 1018.5 |
| 20260905051733 | 49 | 289 | 0.0 | 0.0 | 0.00 | 0.03 | 0.03 | 95 | 1018.3 |
| 20260905051236 | 49 | 289 | 0.0 | 0.0 | 0.00 | 0.03 | 0.03 | 95 | 1018.3 |
| 20260905050724 | 49 | 289 | 0.0 | 0.0 | 0.00 | 0.03 | 0.03 | 95 | 1018.3 |
| 20260905050218 | 49 | 289 | 0.0 | 0.0 | 0.00 | 0.03 | 0.03 | 95 | 1018.4 |
| 20260905045721 | 49 | 289 | 0.0 | 0.0 | 0.00 | 0.03 | 0.03 | 95 | 1018.4 |
| 20260905045214 | 49 | 289 | 0.0 | 0.0 | 0.00 | 0.03 | 0.03 | 95 | 1018.6 |
| 20260905044714 | 49 | 289 | 0.0 | 0.0 | 0.00 | 0.03 | 0.03 | 95 | 1018.7 |
| 20260905044208 | 49 | 289 | 0.0 | 0.0 | 0.00 | 0.03 | 0.03 | 95 | 1018.7 |
| 20260905043710 | 49 | 289 | 0.0 | 0.0 | 0.00 | 0.03 | 0.03 | 95 | 1018.7 |
| 20260905043159 | 49 | 289 | 0.0 | 0.0 | 0.00 | 0.03 | 0.03 | 94 | 1018.5 |
| 20260905042654 | 49 | 289 | 0.0 | 0.0 | 0.00 | 0.03 | 0.03 | 94 | 1018.7 |
| 20260905042154 | 49 | 289 | 0.0 | 0.0 | 0.00 | 0.03 | 0.03 | 94 | 1018.8 |
| 20260905041650 | 49 | 289 | 0.0 | 0.0 | 0.00 | 0.03 | 0.03 | 94 | 1018.6 |
| 20260905041149 | 49 | 289 | 0.0 | 0.0 | 0.00 | 0.03 | 0.03 | 94 | 1018.5 |
| 20260905040650 | 49 | 289 | 0.0 | 0.0 | 0.00 | 0.03 | 0.03 | 94 | 1018.5 |
| 20260905040152 | 49 | 289 | 0.0 | 0.0 | 0.00 | 0.03 | 0.03 | 94 | 1018.4 |
| 20260905035650 | 49 | 289 | 0.0 | 0.0 | 0.00 | 0.03 | 0.03 | 93 | 1018.3 |
| 20260905035632 | 49 | 289 | 0.0 | 0.0 | 0.00 | 0.03 | 0.03 | 93 | 1018.2 |
| 20260905034649 | 49 | 289 | 0.0 | 0.0 | 0.00 | 0.03 | 0.03 | 93 | 1018.3 |
| 20260905034130 | 50 | 289 | 0.0 | 0.0 | 0.00 | 0.03 | 0.03 | 93 | 1018.2 |
| 20260905033633 | 50 | 289 | 0.0 | 0.0 | 0.00 | 0.03 | 0.03 | 93 | 1018.3 |
| 20260905033126 | 50 | 289 | 0.0 | 0.0 | 0.00 | 0.03 | 0.03 | 93 | 1018.3 |
| 20260905032626 | 50 | 289 | 0.0 | 0.0 | 0.00 | 0.03 | 0.03 | 93 | 1018.1 |
| 20260905032129 | 50 | 289 | 0.0 | 0.0 | 0.00 | 0.03 | 0.03 | 93 | 1018.2 |
| 20260905031627 | 50 | 289 | 0.0 | 2.0 | 0.00 | 0.03 | 0.03 | 93 | 1018.1 |
| 20260905031349 | 50 | 289 | 0.0 | 2.0 | 0.00 | 0.03 | 0.03 | 93 | 1018.3 |
| 20260905030613 | 50 | 138 | 0.0 | 0.0 | 0.00 | 0.03 | 0.03 | 93 | 1018.3 |
| 20260905030112 | 50 | 138 | 0.0 | 2.0 | 0.00 | 0.03 | 0.03 | 93 | 1018.4 |
| 20260905025835 | 50 | 138 | 0.0 | 2.0 | 0.00 | 0.03 | 0.03 | 93 | 1018.4 |
| 20260905025343 | 50 | 138 | 0.0 | 1.0 | 0.00 | 0.03 | 0.03 | 92 | 1018.4 |
| 20260905024602 | 50 | 138 | 0.0 | 0.0 | 0.00 | 0.03 | 0.03 | 92 | 1018.3 |
| 20260905024326 | 51 | 138 | 0.0 | 0.0 | 0.00 | 0.03 | 0.03 | 92 | 1018.2 |
| 20260905023549 | 51 | 138 | 0.0 | 0.0 | 0.00 | 0.03 | 0.03 | 91 | 1018.1 |
| 20260905023048 | 51 | 138 | 0.0 | 2.0 | 0.00 | 0.03 | 0.03 | 91 | 1018.2 |
| 20260905022543 | 51 | 138 | 0.0 | 2.0 | 0.00 | 0.03 | 0.03 | 91 | 1017.9 |
| 20260905022037 | 51 | 139 | 0.0 | 0.0 | 0.00 | 0.03 | 0.03 | 90 | 1017.9 |
| 20260905021523 | 52 | 139 | 0.0 | 0.0 | 0.00 | 0.03 | 0.03 | 89 | 1017.9 |
| 20260905021023 | 52 | 139 | 0.0 | 0.0 | 0.00 | 0.03 | 0.03 | 89 | 1017.8 |
| 20260905020523 | 53 | 139 | 0.0 | 0.0 | 0.00 | 0.03 | 0.03 | 88 | 1017.8 |
| 20260905020022 | 53 | 139 | 0.0 | 0.0 | 0.00 | 0.03 | 0.03 | 88 | 1017.8 |
| 20260905015518 | 53 | 139 | 0.0 | 0.0 | 0.00 | 0.03 | 0.03 | 87 | 1017.6 |
| 20260905015021 | 54 | 139 | 0.0 | 0.0 | 0.00 | 0.03 | 0.03 | 87 | 1017.4 |
| 20260905014513 | 54 | 139 | 0.0 | 0.0 | 0.00 | 0.03 | 0.03 | 86 | 1017.4 |
| 20260905014008 | 55 | 139 | 0.0 | 0.0 | 0.00 | 0.03 | 0.03 | 86 | 1017.4 |
| 20260905013509 | 55 | 139 | 0.0 | 0.0 | 0.00 | 0.03 | 0.03 | 86 | 1017.4 |
| 20260905013459 | 56 | 139 | 0.0 | 0.0 | 0.00 | 0.03 | 0.03 | 86 | 1017.5 |
| 20260905012512 | 56 | 139 | 0.0 | 0.0 | 0.00 | 0.03 | 0.03 | 86 | 1017.5 |
| 20260905011959 | 56 | 139 | 0.0 | 0.0 | 0.00 | 0.03 | 0.03 | 86 | 1017.5 |
| 20260905011459 | 56 | 139 | 0.0 | 0.0 | 0.00 | 0.03 | 0.03 | 86 | 1017.6 |
| 20260905011000 | 57 | 139 | 0.0 | 0.0 | 0.00 | 0.03 | 0.03 | 86 | 1017.6 |
| 20260905010455 | 57 | 139 | 0.0 | 0.0 | 0.00 | 0.03 | 0.03 | 86 | 1017.5 |
| 20260905005950 | 57 | 139 | 0.0 | 0.0 | 0.00 | 0.03 | 0.03 | 86 | 1017.6 |
| 20260905005707 | 57 | 139 | 0.0 | 0.0 | 0.00 | 0.03 | 0.03 | 87 | 1017.6 |
| 20260905004940 | 57 | 139 | 0.0 | 0.0 | 0.00 | 0.03 | 0.03 | 86 | 1017.7 |
| 20260905004440 | 58 | 139 | 0.0 | 0.0 | 0.00 | 0.03 | 0.03 | 85 | 1017.6 |
| 20260905003944 | 58 | 139 | 0.0 | 0.0 | 0.00 | 0.03 | 0.03 | 85 | 1017.6 |
| 20260905003703 | 58 | 139 | 0.0 | 0.0 | 0.00 | 0.03 | 0.03 | 83 | 1017.5 |
| 20260905003206 | 58 | 139 | 0.0 | 0.0 | 0.00 | 0.03 | 0.03 | 84 | 1017.4 |
| 20260905002441 | 58 | 139 | 0.0 | 0.0 | 0.00 | 0.03 | 0.03 | 82 | 1017.3 |
| 20260905001937 | 59 | 139 | 0.0 | 0.0 | 0.00 | 0.03 | 0.03 | 82 | 1017.3 |
| 20260905001702 | 59 | 139 | 0.0 | 0.0 | 0.00 | 0.03 | 0.03 | 82 | 1017.3 |
| 20260905000934 | 59 | 139 | 0.0 | 0.0 | 0.00 | 0.03 | 0.03 | 82 | 1017.3 |
| 20260905000417 | 59 | 139 | 0.0 | 0.0 | 0.00 | 0.03 | 0.03 | 81 | 1017.2 |
| 20260904235917 | 59 | 139 | 0.0 | 0.0 | 0.00 | 0.03 | 0.03 | 81 | 1017.2 |
| 20260904235417 | 59 | 139 | 0.0 | 0.0 | 0.00 | 0.03 | 0.03 | 80 | 1017.3 |
| 20260904234917 | 59 | 139 | 0.0 | 0.0 | 0.00 | 0.03 | 0.03 | 78 | 1017.3 |
| 20260904234413 | 59 | 139 | 0.0 | 0.0 | 0.00 | 0.03 | 0.03 | 75 | 1017.3 |
| 20260904233907 | 59 | 139 | 0.0 | 0.0 | 0.00 | 0.03 | 0.03 | 77 | 1017.3 |
| 20260904233408 | 60 | 139 | 0.0 | 0.0 | 0.00 | 0.03 | 0.03 | 77 | 1017.2 |
| 20260904232910 | 60 | 139 | 0.0 | 0.0 | 0.00 | 0.03 | 0.03 | 74 | 1017.2 |
| 20260904232408 | 60 | 139 | 0.0 | 0.0 | 0.00 | 0.03 | 0.03 | 74 | 1017.4 |
| 20260904231907 | 60 | 139 | 0.0 | 0.0 | 0.00 | 0.03 | 0.03 | 75 | 1017.4 |
| 20260904231408 | 60 | 139 | 0.0 | 0.0 | 0.00 | 0.03 | 0.03 | 77 | 1017.4 |
| 20260904230904 | 60 | 139 | 0.0 | 0.0 | 0.00 | 0.03 | 0.03 | 68 | 1017.4 |
| 20260904230403 | 60 | 139 | 0.0 | 0.0 | 0.00 | 0.03 | 0.03 | 73 | 1017.3 |
| 20260904225904 | 60 | 139 | 0.0 | 0.0 | 0.00 | 0.03 | 0.03 | 67 | 1017.3 |
| 20260904225404 | 60 | 139 | 0.0 | 3.0 | 0.00 | 0.03 | 0.03 | 68 | 1017.3 |
| 20260904224906 | 60 | 139 | 0.0 | 3.0 | 0.00 | 0.03 | 0.03 | 66 | 1017.4 |
| 20260904224405 | 60 | 160 | 0.0 | 1.0 | 0.00 | 0.03 | 0.03 | 69 | 1017.3 |
| 20260904223900 | 60 | 160 | 0.0 | 1.0 | 0.00 | 0.03 | 0.03 | 71 | 1017.3 |
| 20260904223400 | 59 | 113 | 0.0 | 1.0 | 0.00 | 0.03 | 0.03 | 69 | 1017.4 |
| 20260904222849 | 59 | 107 | 0.0 | 2.0 | 0.00 | 0.03 | 0.03 | 69 | 1017.2 |
| 20260904222344 | 59 | 106 | 0.0 | 2.0 | 0.00 | 0.03 | 0.03 | 72 | 1017.2 |
| 20260904221839 | 59 | 79 | 0.0 | 0.0 | 0.00 | 0.03 | 0.03 | 74 | 1017.2 |
| 20260904221338 | 59 | 79 | 0.0 | 2.0 | 0.00 | 0.03 | 0.03 | 74 | 1017.0 |
| 20260904220839 | 59 | 79 | 0.0 | 2.0 | 0.00 | 0.03 | 0.03 | 75 | 1017.2 |
| 20260904220339 | 59 | 63 | 0.0 | 2.0 | 0.00 | 0.03 | 0.03 | 75 | 1017.3 |
| 20260904215839 | 58 | 63 | 0.0 | 2.0 | 0.00 | 0.03 | 0.03 | 77 | 1017.4 |
| 20260904215339 | 58 | 240 | 0.0 | 0.0 | 0.00 | 0.03 | 0.03 | 79 | 1017.3 |
| 20260904214835 | 58 | 240 | 0.0 | 0.0 | 0.00 | 0.03 | 0.03 | 78 | 1017.5 |
| 20260904214325 | 58 | 240 | 0.0 | 0.0 | 0.00 | 0.04 | 0.03 | 76 | 1017.4 |
| 20260904213827 | 58 | 240 | 0.0 | 1.0 | 0.00 | 0.04 | 0.03 | 76 | 1017.4 |
| 20260904213325 | 58 | 240 | 0.0 | 2.0 | 0.00 | 0.04 | 0.03 | 76 | 1017.3 |
| 20260904212820 | 58 | 240 | 0.0 | 2.0 | 0.00 | 0.04 | 0.03 | 77 | 1017.3 |
| 20260904212310 | 58 | 242 | 0.0 | 1.0 | 0.00 | 0.04 | 0.03 | 80 | 1017.2 |
| 20260904211811 | 57 | 242 | 0.0 | 2.0 | 0.00 | 0.04 | 0.03 | 79 | 1017.3 |
| 20260904211310 | 57 | 242 | 0.0 | 2.0 | 0.00 | 0.04 | 0.03 | 80 | 1017.2 |
| 20260904210808 | 57 | 98 | 0.0 | 1.0 | 0.00 | 0.04 | 0.03 | 81 | 1016.8 |
| 20260904210527 | 57 | 99 | 0.0 | 3.0 | 0.00 | 0.04 | 0.03 | 81 | 1016.8 |
| 20260904205756 | 58 | 99 | 0.0 | 3.0 | 0.00 | 0.04 | 0.03 | 80 | 1016.6 |
| 20260904205256 | 58 | 216 | 0.0 | 0.0 | 0.00 | 0.04 | 0.03 | 79 | 1016.7 |
| 20260904204756 | 57 | 216 | 0.0 | 3.0 | 0.00 | 0.04 | 0.03 | 77 | 1016.7 |
| 20260904204519 | 57 | 216 | 0.0 | 3.0 | 0.00 | 0.04 | 0.03 | 77 | 1016.6 |
| 20260904203751 | 57 | 221 | 0.0 | 2.0 | 0.00 | 0.05 | 0.03 | 80 | 1016.7 |
| 20260904203513 | 57 | 264 | 0.0 | 1.0 | 0.00 | 0.05 | 0.03 | 78 | 1016.6 |
| 20260904202743 | 56 | 268 | 0.0 | 0.0 | 0.00 | 0.07 | 0.03 | 83 | 1016.7 |
| 20260904202231 | 56 | 268 | 0.0 | 0.0 | 0.00 | 0.08 | 0.03 | 84 | 1016.8 |
| 20260904201727 | 56 | 268 | 0.0 | 4.0 | 0.00 | 0.08 | 0.03 | 82 | 1016.8 |
| 20260904201217 | 56 | 269 | 0.0 | 4.0 | 0.00 | 0.08 | 0.03 | 83 | 1016.8 |
| 20260904200937 | 55 | 132 | 0.0 | 3.0 | 0.00 | 0.08 | 0.03 | 89 | 1016.7 |
| 20260904200215 | 54 | 105 | 0.0 | 3.0 | 0.00 | 0.08 | 0.03 | 90 | 1016.8 |
| 20260904195934 | 54 | 103 | 0.0 | 1.0 | 0.00 | 0.08 | 0.03 | 89 | 1016.7 |
| 20260904195207 | 54 | 102 | 0.0 | 2.0 | 0.00 | 0.08 | 0.03 | 90 | 1016.7 |
| 20260904194707 | 54 | 102 | 0.0 | 2.0 | 0.00 | 0.10 | 0.03 | 91 | 1016.8 |
| 20260904194205 | 54 | 166 | 0.0 | 1.0 | 0.00 | 0.10 | 0.03 | 91 | 1016.7 |
| 20260904193658 | 54 | 209 | 0.0 | 0.0 | 0.00 | 0.11 | 0.03 | 92 | 1016.7 |
| 20260904193148 | 53 | 209 | 0.0 | 0.0 | 0.00 | 0.14 | 0.03 | 93 | 1016.7 |
| 20260904192905 | 53 | 209 | 0.0 | 0.0 | 0.00 | 0.16 | 0.03 | 93 | 1016.8 |
| 20260904192405 | 53 | 209 | 0.0 | 1.0 | 0.00 | 0.16 | 0.03 | 93 | 1016.8 |
| 20260904191643 | 53 | 209 | 0.0 | 1.0 | 0.00 | 0.16 | 0.03 | 94 | 1016.7 |
| 20260904191144 | 53 | 209 | 0.0 | 0.0 | 0.00 | 0.16 | 0.03 | 94 | 1016.7 |
| 20260904190639 | 52 | 209 | 0.0 | 0.0 | 0.00 | 0.16 | 0.03 | 94 | 1016.7 |
| 20260904190138 | 52 | 209 | 0.0 | 0.0 | 0.00 | 0.16 | 0.03 | 94 | 1016.8 |
| 20260904185634 | 52 | 209 | 0.0 | 0.0 | 0.00 | 0.16 | 0.03 | 94 | 1016.7 |
| 20260904185137 | 52 | 209 | 0.0 | 1.0 | 0.00 | 0.16 | 0.03 | 94 | 1016.8 |
| 20260904184855 | 52 | 209 | 0.0 | 2.0 | 0.00 | 0.16 | 0.03 | 94 | 1016.6 |
| 20260904184124 | 52 | 209 | 0.0 | 3.0 | 0.00 | 0.16 | 0.03 | 95 | 1016.6 |
| 20260904183613 | 52 | 209 | 0.0 | 3.0 | 0.00 | 0.16 | 0.03 | 95 | 1016.6 |
| 20260904183115 | 52 | 0 | 0.0 | 4.0 | 0.00 | 0.16 | 0.03 | 95 | 1016.6 |
| 20260904182832 | 51 | 165 | 0.0 | 5.0 | 0.00 | 0.16 | 0.03 | 96 | 1016.5 |
| 20260904182109 | 51 | 155 | 2.0 | 5.0 | 0.00 | 0.16 | 0.03 | 97 | 1016.5 |
| 20260904181610 | 51 | 325 | 0.0 | 2.0 | 0.00 | 0.16 | 0.03 | 97 | 1016.4 |
| 20260904181113 | 51 | 325 | 0.0 | 4.0 | 0.00 | 0.16 | 0.03 | 97 | 1016.4 |
| 20260904180605 | 51 | 12 | 0.0 | 4.0 | 0.00 | 0.16 | 0.03 | 97 | 1016.5 |
| 20260904180100 | 51 | 311 | 0.0 | 2.0 | 0.00 | 0.16 | 0.03 | 97 | 1016.4 |
| 20260904175551 | 50 | 311 | 0.0 | 2.0 | 0.00 | 0.16 | 0.03 | 97 | 1016.4 |
| 20260904175045 | 50 | 311 | 0.0 | 0.0 | 0.00 | 0.16 | 0.03 | 97 | 1016.3 |